[問題] 有人這次猜拳活動湊不到七勝的嗎?

看板 Tos
時間
留言 182則留言,167人參與討論
推噓 105推 29噓 48→
我記得我好像有兩三天忘記參加 連今天必定獲勝一起結算也只有六勝 雖然獵人早就抽滿了不管送哪張都沒差 不過21天要湊到七勝比想像中的難啊? 中間連續好幾天都是輸或和的時候真的想白眼。 -- 作者 tommy910174 (........) 看板 Baseball 標題 [討論] 陳金鋒是不是已經不會打變化球了 時間 Wed May 11 22:24:47 2011 作者 deadchild (小時了了) 看板 Baseball 標題 [新聞] 隊長的責任 陳金鋒12局下再見轟 時間 Thu May 12 09:18:34 2011 陳金鋒賽後笑得很開心,他說:「第1球是直球,本來就在等,結果錯過揮棒機會,第2球 沒刻意挑選,打到變化球,看到球飛過中外野全壘打牆,才知是結束比賽的一擊。」 -- ※ 發信站: 批踢踢實業坊(ptt.cc), 來自: 220.134.18.66 ※ 文章網址: https://www.ptt.cc/bbs/ToS/M.1529317379.A.896.html
1Filovemumi: 4勝路過 06/18 18:23
3Fcocomomo2: 其中1勝還是必勝給的 06/18 18:24
4Fquestioner: 我35抽都砸下去了,有沒有猜全早沒差 06/18 18:25
5Fkwanza: 幾勝是假的 我公會也有人三勝中大獎 06/18 18:25
6Fbabufong: 幾勝沒差啦,重點是每天的參加獎 06/18 18:25
7Fbabufong: 選卡早就選出來bang成150魂了 06/18 18:25
8Ffiercy: 已經全抽到,猜拳就只是每天拿點小東西,好像有拿過大鳥 06/18 18:26
9FERICTOR: 2勝 連賺個50魂都賺不到 06/18 18:27
10Farabeske: 連續猜石x7 布x7 剪~ 剛好就是7勝. 其實全部出一樣也行 06/18 18:28
11FcoeXist: 非洲人路過 猜拳4勝2肥婆 阿路加送我倉管 之前龐貝40抽只 06/18 18:28
12FcoeXist: 1隻 蒸蚌 06/18 18:28
13Fnodnarb1027: 含必帶五勝 06/18 18:30
14Fm3fm03: 還真的湊不到7 是不是有點衰== 06/18 18:31
15Fmaxliao: |勝 06/18 18:31
16Fmaxliao: 4勝 06/18 18:31
17Fshenmue1001: 加上今天必勝總共6勝+1 06/18 18:32
18Froys606: (舉手) 連最後一天送的也只湊到四勝 不過有小傑我就算了 06/18 18:33
19Fa37988233: 5勝報到 幹你老師 06/18 18:36
20Fsawkuanwoo: 8次,可是沒有稀有 06/18 18:38
21Fscpx: 對我來說沒差 伊 雷 比 有比較好嗎 06/18 18:39
22Fpippen2002: 8勝報到,可是沒有稀有! X你老師! 06/18 18:39
23Fsrw07314: 七勝也不一定會給你想要的 放寬心吧 06/18 18:40
24Fsffjh92104: 小弟7勝無大獎,換150魂,這樣有讓你比較欣慰嗎XD 06/18 18:42
25Fomyg0d2007: 七勝但都是肥婆 沒有感到更好... 06/18 18:43
26Fwtf1320: 5勝…… 06/18 18:44
27Fable2214: 全部出剪刀才5勝... 06/18 18:46
28Fgygycowbei: 剛好7 都肥婆 有傑庫沒差 06/18 18:47
29Fsean11bill09: 每天都猜 六勝 06/18 18:47
30Forcgary: 加必勝 總共三勝 06/18 18:47
31Fpinkcircleee: 看到這篇才知道結束了QQ只有6勝 06/18 18:50
32FTheJ: 加必勝剛好7勝.都肥婆.不過拿到3隻大鳥 06/18 18:51
33Fntnnthree: 3勝 不過有稀有 06/18 18:51
34Fmike2685a: 5勝路過 06/18 18:52
35Flogitech2004: 容易猜贏就給你肥婆,有差嗎 06/18 18:53
36Fzxcv820421: 6... 06/18 18:54
37FCFfisher: 沒七勝 不過幾勝不是重點 重點是開的格子是肥婆還稀有 06/18 18:56
38Fii9958: 8勝 150魂 QQ 06/18 18:59
39Fdrraujn: 含必中6勝 QQQQQQQQQQQQ 06/18 18:59
40Fshinyhaung: 3勝簽到 06/18 19:00
41Fwithjusaka: 六勝QQ 06/18 19:02
42FTimmy21: 加必勝3勝 每天都出一樣欸還能只贏2場 06/18 19:03
43Fanonova: 4勝,就安慰自己7勝也是肥婆吧 06/18 19:08
44Fa200650305: 五勝 哭哭哭 06/18 19:09
45Fdannyace: 1勝就給奇犽了 一切都是命 06/18 19:11
46Fhenrydamn: 一勝... 06/18 19:12
47Fhannaptt: 4勝... 06/18 19:16
48Fbbcorn: +1 勝率33.3%,每天猜還真的達不到… 06/18 19:18
49Fabc4865g: 六勝拿皮卡 可是我缺奇犽 06/18 19:19
50Fq2520q: 今天剛好7勝… 06/18 19:19
51Fdong99115155: 加起來只有5勝 06/18 19:19
52FDragonQuest: 4勝 06/18 19:20
53Fatkiven: 加今天5勝 06/18 19:22
54Fguanluvsquat: 先無勝八天,之後贏到今天,拿隻奇犽,不過我早就抽 06/18 19:23
55Fguanluvsquat: 齊。 06/18 19:23
56Fryanpiggy: 每天參加 到今天必勝一起算才四勝 06/18 19:25
57Fga652206: 四勝 06/18 19:25
58FUkanomitama: 6 06/18 19:29
59Ffirstkiki: 小帳含今天必勝共5勝...... 06/18 19:29
60Fjamesmile: 6勝肥婆 06/18 19:30
61Fcycle: 剛好七勝可是都肥婆,不過參加獎比較重要拿了25法眼好幾隻 06/18 19:30
62Fcycle: 大肥挺不錯的 06/18 19:30
63Fcrazyday: 三勝路過 含今天送的一勝 06/18 19:31
64Fger1871: 早早就6勝停牌 然後就沒贏過了XD 06/18 19:33
65Fpopo22: 湊不到 06/18 19:34
66Fjoy0520: 6勝QQ 06/18 19:34
67FClownT: 3勝喔 06/18 19:34
68Fbingreen: 共5勝,馬的 06/18 19:36
69Fcs9947g: 3勝路過……Q.Q 06/18 19:37
70Fwscjoe: 剛好7勝 還不是3肥婆... 06/18 19:38
71Fshivaeye: 每天出剪刀6勝,最後一天七勝,但沒大獎選,選比司吉 06/18 19:39
72FSportLeo: 四勝GG 06/18 19:42
73FYdarvish: 3 06/18 19:42
74Fyzkeroro: 3勝 哭 06/18 19:42
75Falgebraic: 六勝報到 06/18 19:44
76Fkoo265: 6勝 就我...... 06/18 19:45
77FxxxHHHxxx: 沒差 都是糞卡 06/18 19:47
78Fdischarge: 第七勝才拿到奇犽 剛好沒存石抽 好爽 06/18 19:51
79Fsam81819: 我只是想要比斯吉 其他都有了QQ 06/18 19:51
80Fjpqh0659: 剛好7勝 結果看到雷歐力^^ 06/18 19:52
81FOyAlbert: 今天剛好7勝,雷歐力比斯吉廁索笑到我心發寒 06/18 19:54
82Fsayauser: 湊到七勝也是三張肥婆阿 呵呵呵 06/18 19:56
83Faoiaoi: 有抽齊 幾勝根本沒差 反正獎勵隨機 06/18 19:58
84Fivy153642: 加必勝4勝 06/18 20:01
85Fyasopp: 加必勝6勝 06/18 20:04
86Fst40182: 忘了幾勝,反正不到7次 不過有拿到2隻大鳥 嘻嘻 06/18 20:06
87Fetu4315: 我參加不到一半 加必勝剛好7勝 06/18 20:07
88FElfgj: 加今天六勝,乾 06/18 20:17
89Fdoublemouse: 4勝 呵 06/18 20:19
90Fa3225737: 沒七勝別難過 反正都肥婆 06/18 20:19
91Fbassh: 含必勝兩勝,幹 06/18 20:21
92Fcard: 6勝+1 反正已抽滿 06/18 20:21
93Fmihono: 5勝 少了50魂 06/18 20:22
94Fapple037037: 十勝都小獎QQ 06/18 20:24
95Fjj852468j: 總共六勝+1 06/18 20:26
96Fbh20511: 6勝加1。但是有酷拉 06/18 20:29
97Fching82: 5勝 路過 很爛的開網頁行銷活動 06/18 20:31
98Fching82: 還一直強迫你要去點小妹粉絲專頁讚 06/18 20:32
99Fsimonfung720: 5勝 06/18 20:32
100Fzxc2027: 我寧願看7勝拿到肥婆,也不要看到從缺的格子 06/18 20:32
101Frong1994: 只3 可撥 06/18 20:34
102Fhibaru710218: 4勝/7勝 都肥婆其實無感… 06/18 20:35
103Fborui: 6勝 06/18 20:36
104FSCLPAL: 3+1勝QQ 06/18 20:39
105Fetyang: 三勝,沒大獎 06/18 20:44
106Ft32908: 4 06/18 20:47
107Fnine48seven: 四勝哭 06/18 20:48
108Feric280: 6勝來簽到 06/18 20:49
109Fadidas000: 第一次玩一勝小傑,加加總總應該十幾勝吧 06/18 20:51
110Flbc740602: 我來了~~4勝路過 06/18 20:53
111Fjames5210333: 5勝 06/18 20:55
112Fchei67123: 連今天送一勝總共四勝路過 06/18 20:57
113FxxUno: 七勝又怎樣 西索 比司吉 伊爾謎 連選都不想選... 06/18 20:59
114Fjustempty: 猜拳垃圾三兄弟 雷西彌 幸好15抽3大獎 06/18 21:03
115Fxu6d9528: 湊不到的很多== 06/18 21:09
116Fyccm: 7勝都肥婆 06/18 21:19
117FLeo88928: 加必勝6勝 加倍日12抽沒大獎 真非洲人 06/18 21:33
118Fhipnos: 六勝簽到.... 06/18 21:33
119FLeo88928: 然後猜拳是比斯吉跟西索。 06/18 21:33
120Frockyegg: +1 06/18 21:37
121Flonetwyl: 七升帶走小傑 06/18 21:40
122Fykiekie: 我也沒有…… 06/18 21:40
123Fpippen2002: 只好選第三隻比司吉了! 06/18 21:40
124Frehtie: 好像有9勝吧 反正加倍抽到小傑就只缺伊耳彌 第1勝時就有了 06/18 21:44
125Frehtie: 等到七勝看到三張都肥婆 毫無懸念選伊耳彌補齊 06/18 21:44
126Fhunder31: 我呀 只有4勝 有夠慘 06/18 21:44
127Foel0810: 五勝 卡了好久的平手 幹 06/18 21:45
128Fkillingni: 只有5勝 但是有給我奇犽 06/18 21:47
129Fjason0906: 6勝啦乾 06/18 21:50
130Fwahaha2005: 6勝 幹 06/18 21:50
131Fseanx1991: 三勝都沒有 06/18 21:53
132Fx030062536: 含必勝2勝 06/18 21:55
133FKarrigan777: 6勝 但其實有好幾天都忘記開網頁猜 06/18 22:01
134Fswsig: 6勝+1 06/18 22:03
135Fshadya1227: 6勝+1 06/18 22:11
136Fqqqq8745ccc: 6勝 06/18 22:11
137Faren: 剛好7勝,中奇犽,爽 06/18 22:15
138Fchencjj: 4勝 1鳥1石 06/18 22:21
139Fchencjj: 兩張垃圾 06/18 22:22
140Ffeyhs: 含必勝六勝 阿不就還好我抽滿了 06/18 22:25
141FIcarus00004: 全石頭 也是6勝 06/18 22:32
142Fclivezzz: me 3勝 06/18 22:38
143Flongkiss0618: 就機率來說 有50%的人猜不到7勝阿? 06/18 22:52
144Fmisthide: 每天猜 加今天5勝 平手比猜輸多 06/18 22:56
145Fptttong: 有七勝啊 但有跟沒有一樣 06/18 23:03
146Fshinchu329: 6剩路過TAT 06/18 23:09
147Ffocustage: 三勝.......... 06/18 23:11
148Fsharon0927: 3勝簽到 06/18 23:20
149Fddd1264: 3+1 06/18 23:49
150Fcanodo: 加必勝 六勝 06/18 23:52
151Fcelerywu: 6勝+1..... 06/18 23:56
152Fteddybear221: 四勝路過= = 06/18 23:56
153Fmikechan: 最後一天才第三勝 06/18 23:57
154Fcyyanya: 三勝+1QQ 06/19 00:16
155Fqwas1212: 1+1QQ 06/19 00:21
156Fpeterno5: 加必勝的一場後,剛好只有六勝.... 06/19 00:29
157Ffriends29: 六勝+1 06/19 00:48
158Ftu80715: 應該沒有漏 或漏一天 六勝 06/19 00:55
159Fhao1412: 6勝 呵呵 06/19 01:38
160FHCLHSLW: 全剪刀加最後一天必勝才三勝 不然會兩勝 06/19 02:06
161Fa123zyx: 剛好最後一天滿 但是沒有大獎 06/19 02:28
162Fymx3xc: 有七勝也沒用啊 我最後一天才滿 結果來肥婆 06/19 02:32
163Flovecatbaby: 6勝QQ 06/19 03:11
164Fyangnana: 一勝路過 06/19 04:05
165Faden1973: 現在6勝 3勝奇犽耶嘿 06/19 08:00
166Fbobblewater: 難得都記得要猜,結果不意外 06/19 08:51
168FInfinitySA: 反正都給肥婆 沒差 06/19 09:21
169Fs511344: 5勝+1 06/19 09:40
170Fgoodboy98: 樓下讓他看看一勝小傑,有些會中就是會中,跟幾勝無關 06/19 09:54
171Fsrk147: 加必勝 六勝 幹 06/19 10:23
172FHugoJheng: 1勝酋長路過 06/19 11:10
173Fbeypola: 四勝 06/19 11:33
174FParasite0922: 全石頭..很早就開3肥婆了 06/19 11:52
175Fe761031: 前兩天兩勝+必勝 其他全輸XD 06/19 12:43
176Fflyforist: 四勝一個送的XDD 06/19 13:24
178Fpc026276: 好難選。。 06/19 17:40
179Fpc026276: 轉貼的圖 。。 不是我的。。Xd 06/19 17:41
180Faya28666888: 樓上這三小天選之人.. 06/19 19:07
181FPman66124: https://i.imgur.com/Y5DpGcJ.jpg 一勝小傑 06/20 15:35
182Fpippen2002: 當然選小傑啊! 除非你有保底了! 06/25 11:51
看更多 davidex 的文章,或回到 ToS 看板